This is the latest recevied weather packets stored in our database for station/object WA7CUG. If no packets are shown the sender has not sent any weather packets the latest 1 day(s).
| Time | Temp. | Humidity | Pressure | Rain* | Wind** | Luminosity | Snow |
|---|---|---|---|---|---|---|---|
| 1777987929 | 13.33° C | 65% | 1013.1 hPa | 0 mm | 0 m/s | 39 W/m² | - |
| 1777987625 | 13.33° C | 65% | 1013.1 hPa | 0 mm | 0 m/s | 35 W/m² | - |
| 1777987323 | 12.78° C | 67% | 1012.7 hPa | 0 mm | 0 m/s | 31 W/m² | - |
| 1777987020 | 12.22° C | 67% | 1012.9 hPa | 0 mm | 0 m/s | 28 W/m² | - |
| 1777986717 | 12.22° C | 67% | 1012.9 hPa | 0 mm | 0.45 m/s, 188° | 26 W/m² | - |
| 1777986415 | 12.22° C | 68% | 1012.8 hPa | 0 mm | 0.45 m/s, 186° | 23 W/m² | - |
| 1777986113 | 12.22° C | 67% | 1012.6 hPa | 0 mm | 0 m/s | 19 W/m² | - |
| 1777985809 | 12.22° C | 68% | 1012.5 hPa | 0 mm | 0 m/s | 16 W/m² | - |
| 1777985507 | 11.67° C | 68% | 1012.6 hPa | 0 mm | 0.45 m/s, 172° | 12 W/m² | - |
| 1777985203 | 11.67° C | 66% | 1012.3 hPa | 0 mm | 1.34 m/s, 144° | 8 W/m² | - |
| 1777984900 | 11.67° C | 70% | 1012.5 hPa | 0 mm | 0.45 m/s, 144° | 6 W/m² | - |
| 1777984596 | 11.67° C | 70% | 1012.3 hPa | 0 mm | 0 m/s | 4 W/m² | - |
| 1777984293 | 11.11° C | 72% | 1012.4 hPa | 0 mm | 0 m/s | 2 W/m² | - |
| 1777983989 | 11.11° C | 72% | 1012.1 hPa | 0 mm | 0 m/s | 1 W/m² | - |
| 1777983686 | 11.67° C | 73% | 1012.1 hPa | 0 mm | 0 m/s | 1 W/m² | - |
| 1777983383 | 11.67° C | 69% | 1012 hPa | 0 mm | 0 m/s | 0 W/m² | - |
| 1777983080 | 11.67° C | 70% | 1012 hPa | 0 mm | 0 m/s | 0 W/m² | - |
| 1777982776 | 11.11° C | 71% | 1012.1 hPa | 0 mm | 0 m/s | 0 W/m² | - |
| 1777982472 | 11.11° C | 72% | 1012.1 hPa | 0 mm | 0 m/s | 0 W/m² | - |
| 1777982166 | 11.67° C | 73% | 1011.9 hPa | 0 mm | 0 m/s | 0 W/m² | - |
| 1777981864 | 11.67° C | 71% | 1011.9 hPa | 0 mm | 0 m/s | 0 W/m² | - |
| 1777981561 | 12.22° C | 72% | 1012 hPa | 0 mm | 0 m/s | 0 W/m² | - |
| 1777981257 | 11.11° C | 68% | 1012.1 hPa | 0 mm | 0 m/s | 0 W/m² | - |
| 1777980953 | 11.11° C | 68% | 1011.7 hPa | 0 mm | 0 m/s | 0 W/m² | - |
| 1777980650 | 11.11° C | 73% | 1011.8 hPa | 0 mm | 0.45 m/s, 214° | 0 W/m² | - |
* Rain latest hour (hover to see other rain measurements)
** Current wind speed in m/s (hover to see current wind gust speed)